Caribou, ME

10:11 PM EDT on April 26, 2017 (GMT -0400)
Caribou Municipal

Weather History for KCAR - October, 2011

Change the Weather History Date:

Wednesday, October 5, 2011

  Actual Average Record
Temperature  
Mean Temperature 42 °F 47 °F  
Max Temperature 48 °F 57 °F 77 °F (1946)
Min Temperature 35 °F 38 °F 25 °F (1975)
Degree Days  
Heating Degree Days 23 18  
Month to date heating degree days 79 84  
Since 1 July heating degree days 327 551  
Cooling Degree Days 0 0  
Month to date cooling degree days 0 0  
Year to date cooling degree days 170 180  
Moisture  
Dew Point 36 °F    
Average Humidity 71    
Maximum Humidity 92    
Minimum Humidity 49    
Precipitation  
Precipitation T in 0.11 in 0.77 in (1941)
Month to date precipitation 1.37 0.56  
Year to date precipitation 47.71 28.62  
Snow  
Snow 0.00 in 0.00 in 0.80 in (1964)
Month to date snowfall 0.0 0.0  
Since 1 July snowfall 0.0 0.1  
Since 1 September snowfall 0.0 0.1  
Snow Depth 0.00 in    
Sea Level Pressure  
Sea Level Pressure 29.93 in    
Wind  
Wind Speed 14 mph (North)    
Max Wind Speed 28 mph    
Max Gust Speed 39 mph    
Visibility 10 miles    
Events Rain    
T = Trace of Precipitation, MM = Missing Value Source: NWS Daily Summary

Daily Weather History Graph

Daily Weather History Graph

Search for Another Location

Airport or City:

Trip Planner

Search our weather history database for the weather conditions in past years. The results will help you decide how hot, cold, wet, or windy it might be!

Date:

Astronomy

Oct. 05, 2011 Rise Set
Actual Time 6:35 AM EDT 6:04 PM EDT
Civil Twilight 6:05 AM EDT 6:34 PM EDT
Nautical Twilight 5:30 AM EDT 7:09 PM EDT
Astronomical Twilight 4:54 AM EDT 7:45 PM EDT
Moon 3:02 PM EDT (10/5) No Moon Set
Length of Visible Light 12h 29m
Length of Day
11h 28m
Waxing Gibbous, 66% of the Moon is Illuminated
Oct 5
Waxing Gibbous
Oct 11
Full
Oct 19
Last Quarter
Oct 26
New
Nov 2
First Quarter

Hourly Weather History & Observations

Time (EDT) Temp. Windchill Dew Point Humidity Pressure Visibility Wind Dir Wind Speed Gust Speed Precip Events Conditions
12:05 AM 46.4 °F 42.4 °F 42.8 °F 87% 29.99 in 10.0 mi North 8.1 mph - N/A   Overcast
12:35 AM 44.6 °F 39.7 °F 42.8 °F 93% 29.97 in 10.0 mi NNE 9.2 mph - N/A   Overcast
12:54 AM 45.0 °F 40.1 °F 41.0 °F 86% 29.99 in 10.0 mi North 9.2 mph - N/A   Overcast
1:18 AM 44.6 °F 38.8 °F 41.0 °F 87% 29.94 in 10.0 mi NNE 11.5 mph - N/A   Overcast
1:38 AM 44.6 °F 39.2 °F 41.0 °F 87% 29.93 in 10.0 mi NNE 10.4 mph - N/A   Overcast
1:54 AM 44.1 °F 38.6 °F 41.0 °F 89% 29.96 in 10.0 mi North 10.4 mph - N/A   Overcast
2:54 AM 44.1 °F 39.0 °F 39.9 °F 85% 29.94 in 10.0 mi North 9.2 mph - N/A   Overcast
3:54 AM 44.1 °F 39.5 °F 41.0 °F 89% 29.92 in 10.0 mi North 8.1 mph - N/A   Overcast
4:45 AM 44.6 °F 41.4 °F 41.0 °F 87% 29.88 in 10.0 mi North 5.8 mph - N/A   Overcast
4:54 AM 44.1 °F 40.1 °F 41.0 °F 89% 29.90 in 10.0 mi NNW 6.9 mph - N/A   Overcast
5:36 AM 44.6 °F 39.2 °F 41.0 °F 87% 29.88 in 10.0 mi North 10.4 mph - N/A   Overcast
5:54 AM 44.1 °F 40.8 °F 42.1 °F 93% 29.90 in 8.0 mi North 5.8 mph - N/A   Overcast
6:31 AM 44.6 °F 43.1 °F 42.8 °F 93% 29.87 in 5.0 mi NNE 3.5 mph - 0.00 in Rain Light Rain
6:54 AM 44.1 °F 39.5 °F 43.0 °F 96% 29.89 in 8.0 mi North 8.1 mph - 0.00 in Rain Light Rain
7:19 AM 44.6 °F 37.8 °F 41.0 °F 87% 29.85 in 10.0 mi NNW 15.0 mph 21.9 mph 0.00 in   Overcast
7:26 AM 44.6 °F 38.8 °F 41.0 °F 87% 29.85 in 10.0 mi NNW 11.5 mph 20.7 mph 0.00 in   Overcast
7:54 AM 43.0 °F 35.1 °F 37.9 °F 82% 29.89 in 10.0 mi North 17.3 mph 23.0 mph 0.00 in   Overcast
8:01 AM 42.8 °F 35.4 °F 37.4 °F 81% 29.86 in 10.0 mi North 15.0 mph 26.5 mph N/A   Overcast
8:29 AM 42.8 °F 35.8 °F 35.6 °F 76% 29.86 in 10.0 mi North 13.8 mph 21.9 mph N/A   Mostly Cloudy
8:54 AM 42.1 °F 34.2 °F 36.0 °F 79% 29.89 in 10.0 mi North 16.1 mph 20.7 mph N/A   Clear
9:54 AM 44.1 °F 36.5 °F 35.1 °F 71% 29.88 in 10.0 mi North 17.3 mph 25.3 mph N/A   Clear
10:54 AM 46.0 °F 38.0 °F 34.0 °F 63% 29.89 in 10.0 mi North 21.9 mph 33.4 mph N/A   Mostly Cloudy
11:54 AM 45.0 °F 36.4 °F 33.1 °F 63% 29.90 in 10.0 mi North 23.0 mph 29.9 mph N/A   Overcast
12:54 PM 45.0 °F 36.4 °F 30.9 °F 58% 29.91 in 10.0 mi North 23.0 mph 32.2 mph N/A   Overcast
1:54 PM 45.0 °F 37.4 °F 30.9 °F 58% 29.92 in 10.0 mi North 18.4 mph 29.9 mph 0.00 in   Overcast
2:54 PM 46.0 °F 38.3 °F 28.9 °F 51% 29.93 in 10.0 mi North 20.7 mph 28.8 mph N/A   Overcast
3:54 PM 45.0 °F 37.1 °F 28.9 °F 53% 29.94 in 10.0 mi NNW 19.6 mph 31.1 mph N/A   Overcast
4:54 PM 45.0 °F 38.2 °F 27.0 °F 49% 29.96 in 10.0 mi North 15.0 mph 29.9 mph N/A   Overcast
5:54 PM 44.1 °F 37.7 °F 27.0 °F 51% 29.99 in 10.0 mi North 12.7 mph 24.2 mph N/A   Mostly Cloudy
6:54 PM 42.1 °F 36.6 °F 28.0 °F 58% 30.01 in 10.0 mi NNW 9.2 mph - N/A   Mostly Cloudy
7:54 PM 42.1 °F 34.5 °F 28.9 °F 60% 30.02 in 10.0 mi North 15.0 mph 21.9 mph N/A   Mostly Cloudy
8:54 PM 41.0 °F 34.3 °F 28.9 °F 62% 30.02 in 10.0 mi North 11.5 mph - N/A   Overcast
9:54 PM 39.0 °F 31.8 °F 28.9 °F 67% 30.03 in 10.0 mi NNW 11.5 mph - N/A   Clear
10:54 PM 37.9 °F 29.6 °F 26.1 °F 62% 30.04 in 10.0 mi NNW 13.8 mph 21.9 mph N/A   Clear
11:54 PM 36.0 °F 29.0 °F 25.0 °F 64% 30.05 in 10.0 mi NNW 9.2 mph 17.3 mph N/A   Clear